COSMOS 2037

导读

COSMOS 2037是苏联解体后独立国家联合体(CIS)于1989年8月28日09:00发射的卫星,隶属于苏联/俄罗斯"宇宙号(Cosmos)"卫星系列。该系列自1962年起持续发射,涵盖科学探测、通信、军事侦察等多类任务,是世界上规模最大的卫星家族之一,COSMOS 2037继承了该系列多用途航天试验传统,为独联体早期航天活动延续性发展提供了技术支撑。

Basic Information
目录编号:
20196
目录名称:
COSMOS 2037
国际标识:
1989-068A
轨道中心:
EARTH
卫星名称:
COSMOS 2037
卫星全名:
--
卫星状态:
在轨 (已飞行13531 天)
发射日期:
1989-08-28 UTC
国别 :
俄罗斯(独联体) (CIS)
星等 :
--
This satellite is enrolled in the Space Conjunction Data Service (SCDS) and the current flight risk assessment level is: No High Risk
Orbit Information
数据来源 国际轨道数据 AOE轨道数据
星历时间 2026-09-13T20:53:48+0800
17小时前
查看轨道信息
2026-09-13T01:00:00+0800
1天前
查看轨道信息
半长轴 7882.449km 7882.452km
偏心率 0.0023909 0.002391
轨道倾角 73.567° 73.568°
近地点辐角 69.469° 70.192°
升交点赤经 182.926° 184.039°
平近点角 103.304° 1.345°
近地点 1485.465km 1485.468km
远地点 1523.159km 1523.162km
周期 116.078分钟 116.078分钟
每日圈数 12.405409 12.405401
Detailed Information
使用方式:
暂无
2D Orbit Map
3D Orbit Map
Orbit Altitude Analysis Chart
Orbit Inclination Analysis Chart
Orbit Comprehensive Analysis Chart
View Comprehensive Chart
Miss Distance Evolution Trend with All Objects Subscribe to Flight Safety Assessment
Collision Probability Evolution Trend with All Objects Subscribe to Flight Safety Assessment